VJC773 VVTS-VTBS

Flight info

Callsign VJC773
Flight time N/A
Altitude 34000
Route SAPEN5K SAPEN R468 ELMOP P629 NUGPA DCT TUMGA TUMGA1C
Aircraft A321/M-SDE3FGHIRWY/LB1

Departure

Time 2026-05-04 14:56
Airport Tan Son Nhat International Airport (VVTS)

Arrival

Time N/A
Airport Suvarnabhumi Airport (VTBS)
Time Latitude Longitude Altitude Speed Heading
2026-05-04 14:43 10.81776 106.66440 29 ft 0 kts 159°
2026-05-04 14:47 10.81777 106.66440 30 ft 0 kts 159°
2026-05-04 14:47 10.81790 106.66434 29 ft 2 kts 159°
2026-05-04 14:48 10.81804 106.66429 29 ft 2 kts 159°
2026-05-04 14:48 10.81818 106.66424 29 ft 2 kts 159°
2026-05-04 14:48 10.81832 106.66419 28 ft 2 kts 159°
2026-05-04 14:48 10.81841 106.66415 28 ft 1 kts 160°
2026-05-04 14:49 10.81854 106.66407 28 ft 2 kts 129°
2026-05-04 14:49 10.81862 106.66393 28 ft 2 kts 106°
2026-05-04 14:49 10.81864 106.66378 28 ft 2 kts 81°
2026-05-04 14:49 10.81862 106.66370 29 ft 1 kts 66°
2026-05-04 14:50 10.81860 106.66365 28 ft 0 kts 69°
2026-05-04 14:52 10.81860 106.66366 28 ft 0 kts 69°
2026-05-04 14:52 10.81863 106.66374 28 ft 2 kts 69°
2026-05-04 14:53 10.81874 106.66402 28 ft 6 kts 69°
2026-05-04 14:53 10.81893 106.66455 28 ft 9 kts 70°
2026-05-04 14:53 10.81921 106.66533 29 ft 12 kts 71°
2026-05-04 14:53 10.81957 106.66626 29 ft 15 kts 69°
2026-05-04 14:54 10.82001 106.66740 30 ft 18 kts 66°
2026-05-04 14:54 10.82051 106.66864 32 ft 19 kts 57°
2026-05-04 14:54 10.82149 106.66961 34 ft 19 kts 40°
2026-05-04 14:54 10.82258 106.67004 35 ft 16 kts 343°
2026-05-04 14:55 10.82347 106.66951 34 ft 11 kts 326°
2026-05-04 14:55 10.82345 106.66878 33 ft 13 kts 249°
2026-05-04 14:55 10.82237 106.66597 32 ft 76 kts 248°
2026-05-04 14:55 10.81965 106.65891 29 ft 136 kts 251°
2026-05-04 14:56 10.81561 106.64816 109 ft 177 kts 244°
2026-05-04 14:56 10.81106 106.63635 580 ft 182 kts 246°
2026-05-04 14:56 10.80658 106.62427 1122 ft 185 kts 246°
2026-05-04 14:56 10.80207 106.61192 1667 ft 188 kts 244°
2026-05-04 14:57 10.79733 106.59923 2029 ft 196 kts 244°
2026-05-04 14:57 10.79218 106.58568 2308 ft 210 kts 245°
2026-05-04 14:57 10.78671 106.57127 2588 ft 225 kts 245°
2026-05-04 14:57 10.78185 106.55569 2857 ft 242 kts 261°
2026-05-04 14:58 10.78511 106.53848 3072 ft 259 kts 301°
2026-05-04 14:58 10.79592 106.52303 3390 ft 273 kts 312°
2026-05-04 14:58 10.80837 106.50764 3755 ft 287 kts 311°
2026-05-04 14:58 10.81671 106.49683 4168 ft 290 kts 309°
2026-05-04 14:59 10.83239 106.47495 5158 ft 287 kts 307°
2026-05-04 14:59 10.84379 106.45811 5900 ft 285 kts 306°
2026-05-04 14:59 10.86573 106.42454 7230 ft 287 kts 306°
2026-05-04 15:00 10.87669 106.40756 7776 ft 291 kts 306°
2026-05-04 15:00 10.88783 106.39024 8341 ft 295 kts 306°
2026-05-04 15:00 10.89906 106.37275 8891 ft 298 kts 307°
2026-05-04 15:01 10.92212 106.33684 9967 ft 305 kts 306°
2026-05-04 15:01 10.93384 106.31859 10415 ft 311 kts 306°
2026-05-04 15:01 10.94597 106.29968 10651 ft 325 kts 305°
2026-05-04 15:01 10.95864 106.27988 10881 ft 338 kts 305°
2026-05-04 15:02 10.97181 106.25929 11105 ft 351 kts 305°
2026-05-04 15:02 10.98539 106.23805 11440 ft 358 kts 305°
2026-05-04 15:02 10.99895 106.21689 11916 ft 360 kts 304°
2026-05-04 15:02 11.01233 106.19522 12386 ft 363 kts 301°
2026-05-04 15:03 11.02426 106.17233 12818 ft 366 kts 296°
2026-05-04 15:03 11.03445 106.14840 13276 ft 367 kts 293°
2026-05-04 15:03 11.04402 106.12400 13727 ft 369 kts 292°
2026-05-04 15:03 11.05342 106.09975 14139 ft 372 kts 292°
2026-05-04 15:04 11.06309 106.07488 14557 ft 374 kts 292°
2026-05-04 15:04 11.07280 106.05004 14962 ft 377 kts 292°
2026-05-04 15:04 11.08249 106.02532 15369 ft 379 kts 292°
2026-05-04 15:04 11.09231 106.00035 15766 ft 381 kts 292°
2026-05-04 15:05 11.10189 105.97501 16154 ft 383 kts 288°
2026-05-04 15:05 11.10707 105.94825 16510 ft 386 kts 274°
2026-05-04 15:05 11.10637 105.92065 16893 ft 387 kts 263°
2026-05-04 15:05 11.10261 105.89373 17264 ft 389 kts 261°
2026-05-04 15:06 11.09831 105.86630 17630 ft 391 kts 261°
2026-05-04 15:06 11.09408 105.83897 17971 ft 393 kts 261°
2026-05-04 15:06 11.08991 105.81135 18322 ft 395 kts 261°
2026-05-04 15:07 11.08178 105.75574 19012 ft 398 kts 261°
2026-05-04 15:07 11.07771 105.72757 19340 ft 400 kts 261°
2026-05-04 15:07 11.07519 105.69936 19648 ft 403 kts 270°
2026-05-04 15:07 11.07786 105.67116 19955 ft 404 kts 281°
2026-05-04 15:08 11.08569 105.64323 20283 ft 405 kts 289°
2026-05-04 15:08 11.09526 105.61591 20590 ft 408 kts 290°
2026-05-04 15:08 11.10504 105.58869 20894 ft 410 kts 290°
2026-05-04 15:08 11.11488 105.56115 21209 ft 411 kts 290°
2026-05-04 15:09 11.12460 105.53371 21508 ft 413 kts 290°
2026-05-04 15:09 11.13433 105.50605 21803 ft 414 kts 290°
2026-05-04 15:09 11.14401 105.47837 22102 ft 416 kts 290°
2026-05-04 15:10 11.16345 105.42265 22696 ft 418 kts 290°
2026-05-04 15:10 11.17329 105.39436 22974 ft 420 kts 290°
2026-05-04 15:10 11.19300 105.33770 23523 ft 424 kts 289°
2026-05-04 15:11 11.20284 105.30938 23770 ft 426 kts 289°
2026-05-04 15:11 11.21284 105.28057 24026 ft 428 kts 289°
2026-05-04 15:11 11.22289 105.25163 24271 ft 430 kts 289°
2026-05-04 15:11 11.23294 105.22267 24527 ft 431 kts 289°
2026-05-04 15:12 11.24293 105.19384 24782 ft 433 kts 289°
2026-05-04 15:12 11.25293 105.16502 25021 ft 435 kts 289°
2026-05-04 15:12 11.26308 105.13573 25255 ft 436 kts 289°
2026-05-04 15:12 11.27336 105.10607 25502 ft 438 kts 289°
2026-05-04 15:13 11.28341 105.07703 25741 ft 439 kts 289°
2026-05-04 15:13 11.29361 105.04754 25956 ft 441 kts 289°
2026-05-04 15:13 11.30385 105.01792 26175 ft 443 kts 289°
2026-05-04 15:13 11.31407 104.98838 26400 ft 444 kts 289°
2026-05-04 15:14 11.32433 104.95873 26616 ft 446 kts 289°
2026-05-04 15:14 11.33517 104.92898 26801 ft 448 kts 292°
2026-05-04 15:14 11.34806 104.89997 27000 ft 449 kts 296°
2026-05-04 15:14 11.36319 104.87174 27226 ft 450 kts 301°
2026-05-04 15:15 11.37946 104.84483 27441 ft 451 kts 302°
2026-05-04 15:15 11.39617 104.81774 27654 ft 452 kts 302°
2026-05-04 15:15 11.41311 104.79035 27860 ft 454 kts 302°
2026-05-04 15:16 11.44674 104.73583 28229 ft 457 kts 302°
2026-05-04 15:16 11.46379 104.70808 28437 ft 458 kts 302°
2026-05-04 15:16 11.49783 104.65262 28869 ft 460 kts 302°
2026-05-04 15:17 11.51476 104.62502 29075 ft 461 kts 302°
2026-05-04 15:17 11.54871 104.56960 29637 ft 459 kts 302°
2026-05-04 15:17 11.56550 104.54218 29965 ft 457 kts 302°
2026-05-04 15:18 11.58246 104.51445 30280 ft 456 kts 302°
2026-05-04 15:18 11.59920 104.48708 30546 ft 456 kts 302°
2026-05-04 15:18 11.61593 104.45974 30820 ft 455 kts 302°
2026-05-04 15:19 11.64948 104.40486 31400 ft 454 kts 302°
2026-05-04 15:19 11.66372 104.38155 31676 ft 452 kts 302°